URO223 EGNV-EGPF

Flight info

Callsign URO223
Flight time 0h 30m
Altitude 18000
Route NATEB Y96 AGPED
Aircraft A346/H-SDE2E3FGHIJ3J4J5M1RWXY/LB1D1

Departure

Time 2026-04-29 18:16
Airport Teesside International Airport (EGNV)

Arrival

Time 2026-04-29 18:46
Airport Glasgow Airport (EGPF)
Time Latitude Longitude Altitude Speed Heading
2026-04-29 18:05 54.51069 -1.43402 123 ft 0 kts 330°
2026-04-29 18:06 54.51052 -1.43385 118 ft 4 kts 329°
2026-04-29 18:06 54.51041 -1.43373 118 ft 3 kts
2026-04-29 18:06 54.51019 -1.43378 118 ft 4 kts 21°
2026-04-29 18:07 54.50999 -1.43399 118 ft 4 kts 46°
2026-04-29 18:07 54.50984 -1.43434 118 ft 3 kts 59°
2026-04-29 18:07 54.50982 -1.43439 118 ft 0 kts 59°
2026-04-29 18:11 54.50983 -1.43438 123 ft 0 kts 59°
2026-04-29 18:11 54.50988 -1.43424 119 ft 3 kts 59°
2026-04-29 18:11 54.51005 -1.43374 119 ft 7 kts 59°
2026-04-29 18:12 54.51034 -1.43288 121 ft 10 kts 59°
2026-04-29 18:12 54.51060 -1.43158 121 ft 13 kts 81°
2026-04-29 18:12 54.51062 -1.42988 124 ft 16 kts 89°
2026-04-29 18:12 54.51045 -1.42809 124 ft 11 kts 149°
2026-04-29 18:13 54.50971 -1.42850 126 ft 14 kts 220°
2026-04-29 18:13 54.50889 -1.42991 127 ft 19 kts 226°
2026-04-29 18:13 54.50792 -1.43167 127 ft 22 kts 227°
2026-04-29 18:13 54.50682 -1.43372 126 ft 25 kts 227°
2026-04-29 18:14 54.50558 -1.43604 123 ft 28 kts 227°
2026-04-29 18:14 54.50437 -1.43832 124 ft 23 kts 227°
2026-04-29 18:14 54.50357 -1.44069 126 ft 24 kts 245°
2026-04-29 18:14 54.50297 -1.44215 124 ft 8 kts 205°
2026-04-29 18:15 54.50279 -1.44188 127 ft 5 kts 87°
2026-04-29 18:15 54.50294 -1.44122 127 ft 7 kts 53°
2026-04-29 18:15 54.50366 -1.43983 124 ft 41 kts 47°
2026-04-29 18:15 54.50717 -1.43323 126 ft 106 kts 47°
2026-04-29 18:16 54.51342 -1.42165 167 ft 152 kts 47°
2026-04-29 18:16 54.52081 -1.40806 724 ft 156 kts 49°
2026-04-29 18:16 54.52794 -1.39484 1543 ft 149 kts 52°
2026-04-29 18:16 54.53587 -1.38327 2164 ft 160 kts 23°
2026-04-29 18:17 54.54776 -1.38399 2560 ft 189 kts 340°
2026-04-29 18:17 54.55816 -1.39986 2951 ft 213 kts 309°
2026-04-29 18:17 54.56855 -1.41914 3400 ft 226 kts 331°
2026-04-29 18:17 54.58344 -1.43015 3843 ft 242 kts 346°
2026-04-29 18:18 54.60023 -1.43858 4347 ft 260 kts 348°
2026-04-29 18:18 54.61822 -1.44750 4963 ft 276 kts 346°
2026-04-29 18:18 54.63679 -1.45738 5781 ft 282 kts 345°
2026-04-29 18:18 54.65564 -1.46798 6727 ft 286 kts 344°
2026-04-29 18:19 54.67466 -1.47903 7633 ft 290 kts 345°
2026-04-29 18:19 54.68736 -1.48653 8225 ft 294 kts 345°
2026-04-29 18:19 54.70686 -1.49813 9122 ft 299 kts 345°
2026-04-29 18:19 54.72675 -1.50998 10034 ft 305 kts 346°
2026-04-29 18:20 54.75394 -1.52616 10962 ft 322 kts 346°
2026-04-29 18:20 54.77578 -1.53911 11472 ft 340 kts 345°
2026-04-29 18:20 54.79879 -1.55280 11956 ft 359 kts 345°
2026-04-29 18:20 54.81505 -1.56251 12273 ft 372 kts 345°
2026-04-29 18:21 54.84012 -1.57755 12804 ft 388 kts 345°
2026-04-29 18:21 54.86584 -1.59309 13621 ft 394 kts 345°
2026-04-29 18:21 54.89144 -1.60861 14530 ft 397 kts 345°
2026-04-29 18:21 54.91772 -1.62450 15338 ft 401 kts 345°
2026-04-29 18:22 54.94435 -1.64058 16133 ft 406 kts 345°
2026-04-29 18:22 54.97129 -1.65690 16904 ft 412 kts 344°
2026-04-29 18:22 54.99849 -1.67345 17668 ft 416 kts 344°
2026-04-29 18:22 55.02507 -1.69465 18192 ft 424 kts 330°
2026-04-29 18:23 55.04778 -1.72804 18447 ft 430 kts 313°
2026-04-29 18:23 55.06486 -1.77090 18452 ft 431 kts 301°
2026-04-29 18:23 55.07949 -1.81656 18453 ft 431 kts 299°
2026-04-29 18:23 55.09389 -1.86251 18455 ft 431 kts 299°
2026-04-29 18:24 55.10856 -1.90824 18455 ft 431 kts 300°
2026-04-29 18:24 55.12345 -1.95367 18454 ft 431 kts 300°
2026-04-29 18:24 55.13846 -1.99911 18442 ft 431 kts 300°
2026-04-29 18:24 55.15346 -2.04452 18437 ft 431 kts 300°
2026-04-29 18:25 55.16845 -2.08996 18436 ft 431 kts 300°
2026-04-29 18:25 55.18323 -2.13486 18434 ft 431 kts 300°
2026-04-29 18:25 55.19816 -2.18033 18430 ft 431 kts 300°
2026-04-29 18:25 55.21312 -2.22596 18434 ft 432 kts 300°
2026-04-29 18:26 55.22814 -2.27187 18369 ft 434 kts 300°
2026-04-29 18:26 55.24310 -2.31771 18081 ft 432 kts 300°
2026-04-29 18:26 55.25797 -2.36340 17813 ft 429 kts 300°
2026-04-29 18:26 55.27275 -2.40886 17557 ft 428 kts 300°
2026-04-29 18:27 55.28743 -2.45411 17286 ft 426 kts 300°
2026-04-29 18:27 55.30208 -2.49931 17027 ft 425 kts 300°
2026-04-29 18:27 55.31666 -2.54441 16769 ft 423 kts 300°
2026-04-29 18:27 55.33124 -2.58963 16516 ft 422 kts 300°
2026-04-29 18:28 55.34565 -2.63440 16261 ft 420 kts 300°
2026-04-29 18:28 55.36004 -2.67916 15997 ft 419 kts 300°
2026-04-29 18:28 55.37433 -2.72370 15760 ft 417 kts 300°
2026-04-29 18:28 55.38874 -2.76870 15513 ft 416 kts 300°
2026-04-29 18:29 55.40303 -2.81335 15264 ft 417 kts 299°
2026-04-29 18:29 55.41722 -2.85783 15029 ft 416 kts 299°
2026-04-29 18:29 55.43138 -2.90231 14789 ft 415 kts 299°
2026-04-29 18:29 55.44551 -2.94680 14512 ft 414 kts 299°
2026-04-29 18:30 55.45853 -2.99181 14223 ft 408 kts 291°
2026-04-29 18:30 55.46653 -3.03854 13914 ft 398 kts 281°
2026-04-29 18:30 55.47183 -3.08601 13584 ft 390 kts 278°
2026-04-29 18:30 55.47647 -3.13279 13260 ft 383 kts 277°
2026-04-29 18:31 55.48103 -3.17876 12946 ft 376 kts 278°
2026-04-29 18:31 55.48560 -3.22377 12630 ft 369 kts 278°
2026-04-29 18:31 55.49024 -3.26804 12317 ft 363 kts 278°
2026-04-29 18:31 55.49485 -3.31152 12013 ft 356 kts 278°
2026-04-29 18:32 55.50106 -3.35353 11690 ft 352 kts 289°
2026-04-29 18:32 55.52430 -3.42805 11028 ft 339 kts 301°
2026-04-29 18:32 55.53671 -3.46276 10781 ft 332 kts 302°
2026-04-29 18:33 55.54894 -3.49712 10502 ft 327 kts 301°
2026-04-29 18:33 55.56073 -3.53064 10221 ft 323 kts 301°
2026-04-29 18:33 55.57247 -3.56439 9896 ft 320 kts 301°
2026-04-29 18:33 55.58402 -3.59778 9557 ft 317 kts 300°
2026-04-29 18:34 55.59543 -3.63094 9212 ft 314 kts 300°
2026-04-29 18:34 55.60308 -3.65321 8962 ft 313 kts 300°
2026-04-29 18:34 55.61796 -3.69662 8495 ft 311 kts 300°
2026-04-29 18:34 55.62914 -3.72930 8152 ft 309 kts 301°
2026-04-29 18:35 55.64025 -3.76178 7802 ft 307 kts 301°
2026-04-29 18:35 55.65128 -3.79409 7469 ft 305 kts 300°
2026-04-29 18:35 55.66219 -3.82608 7188 ft 301 kts 301°
2026-04-29 18:35 55.67291 -3.85760 6918 ft 297 kts 301°
2026-04-29 18:36 55.68354 -3.88884 6644 ft 293 kts 301°
2026-04-29 18:36 55.69396 -3.91960 6357 ft 289 kts 298°
2026-04-29 18:36 55.70137 -3.95225 6065 ft 283 kts 281°
2026-04-29 18:36 55.70434 -3.98652 5833 ft 277 kts 274°
2026-04-29 18:37 55.70629 -4.02007 5674 ft 269 kts 273°
2026-04-29 18:37 55.70809 -4.05266 5502 ft 261 kts 273°
2026-04-29 18:37 55.70986 -4.08383 5352 ft 253 kts 274°
2026-04-29 18:37 55.71167 -4.11479 5125 ft 249 kts 274°
2026-04-29 18:38 55.71351 -4.14529 4852 ft 248 kts 274°
2026-04-29 18:38 55.71540 -4.17563 4560 ft 247 kts 274°
2026-04-29 18:38 55.71730 -4.20589 4267 ft 246 kts 274°
2026-04-29 18:38 55.71914 -4.23597 3990 ft 244 kts 274°
2026-04-29 18:39 55.72097 -4.26597 3697 ft 244 kts 274°
2026-04-29 18:39 55.72279 -4.29576 3455 ft 241 kts 275°
2026-04-29 18:39 55.72460 -4.32533 3129 ft 241 kts 275°
2026-04-29 18:39 55.72646 -4.35519 2993 ft 244 kts 274°
2026-04-29 18:40 55.72824 -4.38451 2975 ft 234 kts 275°
2026-04-29 18:40 55.72998 -4.41312 2992 ft 232 kts 275°
2026-04-29 18:40 55.73172 -4.44139 3001 ft 232 kts 275°
2026-04-29 18:40 55.73341 -4.46997 2987 ft 234 kts 275°
2026-04-29 18:41 55.73847 -4.55472 3017 ft 215 kts 274°
2026-04-29 18:41 55.74002 -4.58073 3003 ft 204 kts 274°
2026-04-29 18:42 55.74328 -4.60452 2970 ft 203 kts 301°
2026-04-29 18:42 55.75334 -4.62029 2939 ft 185 kts 343°
2026-04-29 18:42 55.76533 -4.62086 2733 ft 168 kts 24°
2026-04-29 18:42 55.77513 -4.61104 2516 ft 155 kts 43°
2026-04-29 18:43 55.78300 -4.59885 2313 ft 147 kts 48°
2026-04-29 18:43 55.79029 -4.58626 2133 ft 145 kts 50°
2026-04-29 18:43 55.79728 -4.57346 1941 ft 143 kts 51°
2026-04-29 18:43 55.80407 -4.56062 1757 ft 143 kts 49°
2026-04-29 18:44 55.81098 -4.54762 1571 ft 142 kts 50°
2026-04-29 18:44 55.81774 -4.53491 1364 ft 141 kts 51°
2026-04-29 18:44 55.82440 -4.52235 1175 ft 137 kts 50°
2026-04-29 18:44 55.83083 -4.51025 990 ft 136 kts 49°
2026-04-29 18:45 55.83752 -4.49769 802 ft 142 kts 47°
2026-04-29 18:45 55.84433 -4.48504 621 ft 141 kts 48°
2026-04-29 18:45 55.85119 -4.47236 453 ft 144 kts 49°
2026-04-29 18:45 55.85796 -4.45932 287 ft 142 kts 47°
2026-04-29 18:46 55.86486 -4.44665 57 ft 141 kts 49°
2026-04-29 18:46 55.87072 -4.43556 42 ft 95 kts 47°
2026-04-29 18:46 55.87450 -4.42847 38 ft 73 kts 46°
2026-04-29 18:46 55.87743 -4.42300 35 ft 48 kts 46°
2026-04-29 18:47 55.87901 -4.41918 32 ft 22 kts 103°
2026-04-29 18:47 55.87777 -4.41882 31 ft 21 kts 211°
2026-04-29 18:47 55.87732 -4.41948 32 ft 4 kts 222°
2026-04-29 18:47 55.87717 -4.41972 32 ft 1 kts 223°
2026-04-29 18:48 55.87704 -4.41995 32 ft 5 kts 224°
2026-04-29 18:48 55.87667 -4.42060 31 ft 10 kts 226°
2026-04-29 18:48 55.87602 -4.42182 34 ft 18 kts 227°
2026-04-29 18:48 55.87508 -4.42364 36 ft 21 kts 227°
2026-04-29 18:49 55.87400 -4.42559 35 ft 23 kts 214°
2026-04-29 18:49 55.87245 -4.42685 36 ft 26 kts 201°
2026-04-29 18:49 55.87068 -4.42807 37 ft 28 kts 201°
2026-04-29 18:49 55.86912 -4.42921 40 ft 20 kts 208°
2026-04-29 18:50 55.86832 -4.43123 40 ft 22 kts 251°
2026-04-29 18:50 55.86785 -4.43399 38 ft 25 kts 254°
2026-04-29 18:50 55.86738 -4.43695 37 ft 17 kts 250°
2026-04-29 18:50 55.86669 -4.43870 36 ft 12 kts 226°
2026-04-29 18:51 55.86607 -4.43983 38 ft 13 kts 220°
2026-04-29 18:51 55.86513 -4.43984 39 ft 7 kts 154°
2026-04-29 18:51 55.86487 -4.43961 39 ft 5 kts 153°
2026-04-29 18:51 55.86453 -4.43956 40 ft 5 kts 211°
2026-04-29 18:52 55.86425 -4.44026 41 ft 7 kts 241°
2026-04-29 18:52 55.86425 -4.44028 41 ft 0 kts 241°